Regional Weather Roundup
Issued by NWS

Home | Current Version | Previous Version | Graphics & Text | Print | Product List | Glossary On
Versions: 1 2 3 4 5 6 7 8 9 10 11 12 13 14 15 16 17 18 19 20 21 22 23 24 25 26 27 28 29 30 31 32 33 34 35 36 37 38 39 40 41 42 43 44 45 46 47 48 49 50
000
ASUS43 KLMK 240110
RWRKY
KENTUCKY REGIONAL WEATHER ROUNDUP
NATIONAL WEATHER SERVICE LOUISVILLE KY
900 PM EDT FRI JUN 23 2017

NOTE "FAIR" INDICATES FEW OR NO CLOUDS BELOW 12,000 FEET
WITH NO SIGNIFICANT WEATHER AND/OR OBSTRUCTIONS TO VISIBILITY.

KYZ001>023-026-027-061>063-070>075-240200-
WESTERN AND SOUTH CENTRAL KENTUCKY

CITY           SKY/WX    TMP DP  RH WIND       PRES   REMARKS
PADUCAH        CLOUDY    77  72  84 W6        29.83R
HENDERSON      CLOUDY    75  72  90 NW5       29.81R
OWENSBORO      CLOUDY    75  71  87 NW9       29.79R
HOPKINSVILLE   MOCLDY    78  75  89 W16G23    29.81R
BOWLING GREEN  MOCLDY    77  75  93 SW3       29.80R
GLASGOW        PTCLDY    73  73 100 SW5       29.81R
$$

KYZ024-025-028>034-038-045-046-053-240200-
NORTH CENTRAL KENTUCKY

CITY           SKY/WX    TMP DP  RH WIND       PRES   REMARKS
LOUISVILLE/SDF CLOUDY    75  73  93 SW6       29.75R
LOUISVILLE/LOU MOCLDY    76  75  97 W3        29.75R
FORT KNOX      MOCLDY    72  72 100 SW5       29.77R
$$

KYZ035>037-039>044-047>052-055>060-089>105-240200-
NORTHEAST KENTUCKY

CITY           SKY/WX    TMP DP  RH WIND       PRES   REMARKS
LEXINGTON      LGT RAIN  68  65  90 NW3       29.77R
COVINGTON      CLOUDY    69  68  96 CALM      29.73R
FRANKFORT      CLOUDY    70  66  87 CALM      29.75R
$$

KYZ054-064>069-076>088-106>120-240200-
SOUTHEAST KENTUCKY

CITY           SKY/WX    TMP DP  RH WIND       PRES   REMARKS
JACKSON        LGT RAIN  72  69  90 VRB5      29.68F
LONDON         LGT RAIN  68  65  90 W14       29.78R
SOMERSET       CLOUDY    66  66 100 W9G17     29.83R
MIDDLESBORO    RAIN      74  72  93 SW15G24   29.77R
MONTICELLO     CLOUDY    70  67  90 W15       29.85R
$$




USA.gov is the U.S. government's official web portal to all federal, state and local government web resources and services.